Location: Neuvy Saint Sepulchre
(46.5953°N, 1.8122°E)
Time: 09:49:21
(UTC+02:00)

ISS - Pass Details

Date: 09 May 2021
Orbit: 417 x 422 km, 51.6° (Epoch: 15 May)

Event Time Altitude Azimuth Distance (km) Brightness Sun altitude
Exits shadow 05:09:18 - 291° (WNW) 2,290 -0.3 -11.8°
Reaches altitude 10° 05:11:18 10° 300° (WNW) 1,506 -1.1 -11.5°
Maximum altitude 05:14:29 37° 10° (N) 675 -2.2 -11.1°
Drops below altitude 10° 05:17:39 10° 79° (E) 1,506 0.1 -10.7°
Sets 05:19:51 0° 88° (E) 2,370 1.0 -10.4°
